User: anonymous   Login
Location: Nantong Television Tower
(32.0188°N, 120.8512°E)
Time: 17:41:28
(UTC+08:00)
Language:

ATLAS 3B CENTAUR R/B - Orbit

View from above orbital plane
View from above orbital plane
View from above satellite
View from above satellite

Ground track
Ground track

The orbit data is extracted from the following two-line orbital elements,

1 28118U 03057B   14353.47020468  .00103604  00000-0  23258-2 0  9550
2 28118 028.1377 114.9568 3750723 349.3881 037.7205 07.98496787210133
Epoch (UTC): 19 December 2014 11:17:05
Eccentricity: 0.3750723
inclination: 28.1377°
perigee height: 229 km
apogee height: 8161 km
right ascension of ascending node: 114.9568°
argument of perigee: 349.3881°
revolutions per day: 7.98496787
mean anomaly at epoch: 37.7205°
orbit number at epoch: 21013

The dashed part of the orbit path shows where the satellite is in the earth's shadow,  

DLR